This is the latest recevied weather packets stored in our database for station/object N7WGJ. If no packets are shown the sender has not sent any weather packets the latest 10 day(s).
| Time | Temp. | Humidity | Pressure | Rain* | Wind** | Luminosity | Snow |
|---|---|---|---|---|---|---|---|
| 1788477089 | 18.33° C | 67% | 1010.1 hPa | 0 mm | - | - | - |
| 1788476508 | 18.33° C | 65% | 1009.9 hPa | 0 mm | - | - | - |
| 1788475902 | 18.33° C | 65% | 1009.9 hPa | 0 mm | - | - | - |
| 1788475302 | 18.33° C | 64% | 1009.8 hPa | 0 mm | - | - | - |
| 1788474704 | 18.89° C | 63% | 1009.8 hPa | 0 mm | - | - | - |
| 1788474084 | 18.89° C | 60% | 1009.8 hPa | 0 mm | - | - | - |
| 1788473487 | 18.89° C | 62% | 1009.8 hPa | 0 mm | - | - | - |
| 1788472903 | 18.33° C | 64% | 1009.9 hPa | 0 mm | - | - | - |
| 1788472297 | 18.33° C | 64% | 1009.9 hPa | 0 mm | - | - | - |
| 1788471703 | 19.44° C | 61% | 1009.9 hPa | 0 mm | - | - | - |
| 1788471103 | 20° C | 60% | 1009.9 hPa | 0 mm | - | - | - |
| 1788470484 | 19.44° C | 61% | 1010 hPa | 0 mm | - | - | - |
| 1788469903 | 18.89° C | 63% | 1009.9 hPa | 0 mm | - | - | - |
| 1788469303 | 18.33° C | 65% | 1009.9 hPa | 0 mm | - | - | - |
| 1788468699 | 18.33° C | 65% | 1009.9 hPa | 0 mm | - | - | - |
| 1788468100 | 18.89° C | 64% | 1009.9 hPa | 0 mm | - | - | - |
| 1788467497 | 18.33° C | 65% | 1009.8 hPa | 0 mm | - | - | - |
| 1788466897 | 18.33° C | 66% | 1010 hPa | 0 mm | - | - | - |
| 1788466296 | 17.78° C | 68% | 1009.8 hPa | 0 mm | - | - | - |
| 1788465714 | 18.33° C | 67% | 1010 hPa | 0 mm | - | - | - |
| 1788465102 | 17.78° C | 72% | 1010 hPa | 0 mm | - | - | - |
| 1788464503 | 17.22° C | 73% | 1010 hPa | 0 mm | - | - | - |
| 1788463885 | 17.22° C | 72% | 1010 hPa | 0 mm | - | - | - |
| 1788463286 | 16.67° C | 75% | 1010 hPa | 0 mm | - | - | - |
| 1788462688 | 16.67° C | 75% | 1010 hPa | 0 mm | - | - | - |
* Rain latest hour (hover to see other rain measurements)
** Current wind speed in m/s (hover to see current wind gust speed)